Regional Weather Roundup
Issued by NWS

Home | Current Version | Previous Version | Graphics & Text | Print | Product List | Glossary On
Versions: 1 2 3 4 5 6 7 8 9 10 11 12 13 14 15 16 17 18 19 20 21 22 23 24 25 26 27 28 29 30 31 32 33 34 35 36 37 38 39 40 41 42 43 44 45 46 47 48 49 50
049
ASUS43 KMPX 081410
RWRMN
WEATHER ROUNDUP FOR MINNESOTA
NATIONAL WEATHER SERVICE TWIN CITIES/CHANHASSEN MN
800 AM CST MON FEB 08 2016


NOTE: "FAIR" INDICATES FEW OR NO CLOUDS BELOW 12,000 FEET WITH NO
SIGNIFICANT WEATHER AND/OR OBSTRUCTIONS TO VISIBILITY. N/A MEANS
CURRENT SKY AND/OR WEATHER CONDITIONS ARE NOT AVAILABLE.

MNZ060>063-068>070-081500-
   Twin Cities Metro

CITY           SKY/WX    TMP DP  RH WIND       PRES   REMARKS
TWIN CITIES    CLOUDY    11   2  67 NW24G31   29.89R WCI  -9
ST PAUL        CLOUDY    12   3  67 NW21G28   29.90R WCI  -7
CRYSTAL        CLOUDY    11   2  67 NW24G32   29.89R WCI  -9
BLAINE         CLOUDY    12   5  73 NW15G24   29.89R WCI  -4
LAKEVILLE      CLOUDY     9   3  78 NW22G31   29.87R WCI -11
EDEN PRAIRIE   CLOUDY    12   3  67 NW15G26   29.88R WCI  -4
SOUTH ST PAUL  CLOUDY    13   4  68 NW17      29.88R WCI  -4
LAKE ELMO      LGT SNOW  14   5  67 NW16G24   29.87R WCI  -2
$$
MNZ001>005-007-008-013>017-022>024-027-028-081500-
   Northwest Minnesota

CITY           SKY/WX    TMP DP  RH WIND       PRES   REMARKS
BEMIDJI        FLURRIES   4  -1  78 NW16G23   29.99R WCI -15
HALLOCK        CLOUDY    10   7  85 N18G29    30.15S WCI  -8
ROSEAU         LGT SNOW   9   1  72 N21       30.06S WCI -11
WARROAD        LGT SNOW   5   0  78 NW15G25   30.05R WCI -13
CROOKSTON      LGT SNOW  10   9  92 N28G33    30.15R VSB 1   WCI -11
DETROIT LAKES  LGT SNOW  10   5  79 N25G33    30.04R WCI -10
MOORHEAD       MIX PCPN  10   9  92 N26G32    30.14R VSB 1   WCI -11
PARK RAPIDS    CLOUDY     6  -1  73 NW18G28   29.97R WCI -13
MAHNOMEN         N/A      7   3  82 N21G32    30.06R WCI -13
$$
MNZ006-009>011-018-025>026-081500-
   North Central Minnesota

CITY           SKY/WX    TMP DP  RH WIND       PRES   REMARKS
BAUDETTE       LGT SNOW   3  -3  76 NW22G31   30.00R WCI -19
FLAG ISLAND    CLOUDY     1  -2  85 NW24      30.03S WCI -22
INTL FALLS     LGT SNOW   4  -2  76 NW15G23   29.94R VSB 3/4 WCI -14
WASKISH        CLOUDY     3   0  85 NW9       30.00R WCI -11
LONGVILLE      CLOUDY     3  -2  78 NW10G20   29.94S WCI -12
GRAND RAPIDS   CLOUDY     3  -2  78 NW21      29.89R WCI -18
CRANE LAKE     CLOUDY     7   3  85 NW5       29.91R WCI  -2
ORR            LGT SNOW   5   0  78 NW9       29.86R WCI  -9
COOK           LGT SNOW   7   1  78 NW8       29.87R WCI  -6
WALKER         PTSUNNY    3  -3  75 NW15      29.97R WCI -15
$$
MNZ012-019>021-037-081500-
   Northeast Minnesota

CITY           SKY/WX    TMP DP  RH WIND       PRES   REMARKS
DULUTH         LGT SNOW   8   2  76 NW16G24   29.80R BLWGSNOWWCI -10
ELY            LGT SNOW   9   5  85 N3        29.81R
HIBBING        LGT SNOW   4   0  83 NW16      29.86R FOG     WCI -15
EVELETH        LGT SNOW   9   1  72 NW13G21   29.86R WCI  -7
DULUTH HARBOR  FLURRIES  12   7  79 NW12      29.87R WCI  -2
TWO HARBORS    LGT SNOW  14   7  73 NW6       29.76R WCI   5
SILVER BAY     LGT SNOW  14   7  73 NW9G16    29.75R WCI   2
GRAND MARAIS     N/A     11   2  67 VRB6      29.78R WCI   1
G MARAIS ARPRT LGT SNOW   3  -2  78 NW10G22   29.67S WCI -12
$$
MNZ029>031-032-039>041-046>048-054>057-064-081500-
   West Central Minnesota

CITY           SKY/WX    TMP DP  RH WIND       PRES   REMARKS
FERGUS FALLS   CLOUDY    10   5  79 N28G41    30.10R HAZE    WCI -11
WHEATON        CLOUDY    14  10  85 NW28G40   30.13R FOG     WCI  -6
MORRIS         CLOUDY    10   7  85 N31G39    30.04R HAZE    WCI -12
ALEXANDRIA     LGT SNOW   8   0  69 N23G32    29.98R WCI -13
ELBOW LAKE     CLOUDY    10   4  77 NW29G37   30.05R WCI -13
WADENA         FLURRIES   5   0  78 NW17G23   29.98R WCI -14
GLENWOOD       CLOUDY     7   1  78 NW25G35   29.98R HAZE    WCI -15
APPLETON       LGT SNOW  12   9  85 N37G48    30.06R VSB 3/4 WCI -11
BENSON         FLURRIES  10   7  85 N25G36    30.02R WCI -10
ORTONVILLE     CLOUDY    12   7  79 N29G39    30.09R HAZE    WCI  -9
MADISON        SNOW      16  10  79 N36G41    30.08R VSB 1/4 WCI  -6
WILLMAR        LGT SNOW  12   7  79 NW25G33   29.99R WCI  -8
$$
MNZ033>034-036-042>043-049>051-058-059-081500-
   Central Minnesota

CITY           SKY/WX    TMP DP  RH WIND       PRES   REMARKS
ST CLOUD       CLOUDY     8   1  73 NW13G22   29.93R WCI  -8
SAUK CENTRE    LGT SNOW   7   2  80 NW23G29   29.97R WCI -14
PAYNESVILLE    LGT SNOW   9   4  82 NW17G23   29.97R WCI  -9
AITKIN         FLURRIES   9  -2  61 NW10G18   29.90R WCI  -6
PINE RIVER     LGT SNOW   7   0  72 NW16      29.97S WCI -11
BRAINERD       LGT SNOW   6   1  80 NW18G26   29.94R VSB 1   WCI -13
STAPLES        LGT SNOW   5   0  78 NW17G23   29.96S WCI -14
LONG PRAIRIE   LGT SNOW   7   1  78 NW20G28   29.97R WCI -13
LITTLE FALLS   LGT SNOW   9   1  72 NW9G16    29.96R WCI  -5
LITCHFIELD     LGT SNOW  10   7  85 NW13G26   29.95R WCI  -5
BUFFALO        CLOUDY    10   3  73 NW15G23   29.94R WCI  -6
MAPLE LAKE     CLOUDY    10   5  78 NW14G24   29.94R WCI  -5
$$
MNZ037-044-045-052-053-081500-
   East Central Minnesota

CITY           SKY/WX    TMP DP  RH WIND       PRES   REMARKS
PRINCETON      CLOUDY    10   1  67 NW17G23   29.91R WCI  -7
MORA           CLOUDY    10   3  72 NW17      29.91R WCI  -7
CAMBRIDGE      FLURRIES  10   1  67 NW15G21   29.89R WCI  -6
RUSH CITY      CLOUDY    10   2  71 NW15      29.89R WCI  -7
MOOSE LAKE     CLOUDY     9   1  72 N13G20    29.86R WCI  -7
HINCKLEY       CLOUDY    10   3  72 NW16      29.88R WCI  -7
CLOQUET        LGT SNOW   7   1  78 NW14G22   29.83R WCI -10
MCGREGOR       CLOUDY     9   1  72 NW12G20   29.89R WCI  -6
$$
MNZ071>073-080-081-089-090-097-098-081500-
   Southwest Minnesota

CITY           SKY/WX    TMP DP  RH WIND       PRES   REMARKS
MONTEVIDEO     CLOUDY    12  10  92 N33G45    30.04R FOG     WCI -10
GRANITE FALLS  LGT SNOW  15  10  82 NW25G36   30.04R VSB 1   WCI  -5
CANBY          LGT SNOW  19  14  82 N20G30    30.07R WCI   3
MARSHALL       LGT SNOW  14   9  79 N31G43    30.02R WCI  -7
REDWOOD FALLS  SNOW      12   8  84 N18G33    29.99R VSB 1/2 WCI  -6
OLIVIA         LGT SNOW  12   9  85 NW25      29.99R WCI  -8
PIPESTONE      CLEAR     18   9  68 N16G30    30.00R WCI   3
WINDOM         HVY SNOW  12   9  85 NW45G51   29.94R VSB<1/4 WCI -13
WORTHINGTON    CLOUDY   N/A N/A N/A N31G40    29.98R VSB 1/2
JACKSON        SNOW      14   9  79 NW40G49   29.93S WCI  -9
TRACY          LGT SNOW  15  11  84 N35G43    30.00R WCI  -7
SLAYTON        LGT SNOW  13  11  93 NW30G43   29.98R VSB 3/4 WCI  -8
$$
MNZ065>067-074>077-082>085-091>093-081500-
   South Central Minnesota

CITY           SKY/WX    TMP DP  RH WIND       PRES   REMARKS
MANKATO        CLOUDY   N/A N/A N/A NW21G32   29.90R
NEW ULM        LGT SNOW  10   7  85 NW23G33   29.93R WCI -10
ST JAMES       HVY SNOW  12  10  92 NW33G39   29.95S VSB<1/4 WCI -10
FAIRMONT       CLOUDY   N/A N/A N/A NW35G40   29.89R VSB 1
GLENCOE        CLOUDY    12   6  77 NW15G22   29.93R WCI  -4
FARIBAULT      CLOUDY    10   5  79 NW20G25   29.87R HAZE    WCI  -8
OWATONNA       CLOUDY    10   7  85 NW21G29   29.86R HAZE    WCI  -9
WASECA         LGT SNOW  12   9  85 NW21G28   29.89R WCI  -6
ALBERT LEA     LGT SNOW  10   7  85 NW15G22   29.84R WCI  -6
$$
MNZ078>079-086>088-094>096-081500-
   Southeast Minnesota

CITY           SKY/WX    TMP DP  RH WIND       PRES   REMARKS
ROCHESTER      MIX PCPN  12   7  80 NW23G35   29.78R WCI  -7
RED WING       CLOUDY    14   3  62 NW14G21   29.85R WCI  -1
STANTON        CLOUDY    13   7  76 NW21      29.86R HAZE    WCI  -5
DODGE CENTER   CLOUDY    10   7  85 NW22      29.80R HAZE    WCI  -9
WINONA         CLOUDY    18  10  73 NW21G29   29.81R WCI   1
AUSTIN         LGT SNOW  10   7  85 NW20G29   29.81S WCI  -8
PRESTON        FLURRIES  13   7  79 NW16G24   29.77R WCI  -4
$$
ABBREVIATIONS USED IN REMARKS
   TC - TEMPERATURES IN CELSIUS
  WCI - WIND CHILL INDEX
   HX - HEAT INDEX
  VSB - VISIBILITY
$$




USA.gov is the U.S. government's official web portal to all federal, state and local government web resources and services.